Location: Laporte
(40.6264°N, 105.1378°W)
Time: 15:18:30
(UTC+00:00)

Envisat - Pass Details

Date: 19 August 2022
Orbit: 764 x 765 km, 98.2° (Epoch: 26 September)

Event Time Altitude Azimuth Distance (km) Brightness Sun altitude
Rises 10:20:08 0° 29° (NNE) 3,238 7.4 -20.0°
Reaches altitude 10° 10:23:05 10° 46° (NE) 2,306 6.7 -19.6°
Maximum altitude 10:26:44 20° 93° (E) 1,725 5.4 -19.1°
Drops below altitude 10° 10:30:22 10° 139° (SE) 2,294 5.5 -18.5°
Sets 10:33:16 0° 156° (SSE) 3,214 6.1 -18.1°
